Change the Weather History Date:

Monday, November 21, 2011

  Actual Average Record
Temperature  
Mean Temperature - -  
Max Temperature - 43 °F 66 °F (1991)
Min Temperature - 25 °F 10 °F (1987)
Moisture  
Dew Point -    
Average Humidity    
Maximum Humidity    
Minimum Humidity    
Precipitation  
Precipitation 0.00 in - - ()
Sea Level Pressure  
Sea Level Pressure 30.24 in    
Wind  
Wind Speed 7 mph (North)    
Max Wind Speed 13 mph    
Max Gust Speed 20 mph    
Visibility 10 miles    
Events      
Averages and records for this station are not official NWS values.
T = Trace of Precipitation, MM = Missing Value Source: NWS Daily Summary

Daily Weather History Graph

Daily Weather History Graph

Search for Another Location

Airport or City:

Trip Planner

Search our weather history database for the weather conditions in past years. The results will help you decide how hot, cold, wet, or windy it might be!

Date:

Astronomy

Nov. 21, 2011 Rise Set
Actual Time 6:42 AM EST 4:06 PM EST
Civil Twilight 6:10 AM EST 4:38 PM EST
Nautical Twilight 5:34 AM EST 5:13 PM EST
Astronomical Twilight 5:00 AM EST 5:48 PM EST
Moon 2:08 AM EST (11/21) 1:33 PM EST (11/21)
Length of Visible Light 10h 27m
Length of Day
9h 23m
Waning Crescent, 18% of the Moon is Illuminated
Nov 21
Waning Crescent
Nov 25
New
Dec 2
First Quarter
Dec 10
Full
Dec 17
Last Quarter

Hourly Weather History & Observations

Time (EST) Temp. Dew Point Humidity Pressure Visibility Wind Dir Wind Speed Gust Speed Precip Events Conditions
12:15 AM - - N/A% 30.06 in 10.0 mi North 5.8 mph - N/A   Scattered Clouds
12:35 AM - - N/A% 30.07 in 10.0 mi North 8.1 mph - N/A   Scattered Clouds
12:55 AM - - N/A% 30.07 in 10.0 mi North 11.5 mph 17.3 mph N/A   Scattered Clouds
1:15 AM - - N/A% 30.08 in 10.0 mi NNW 9.2 mph - N/A   Clear
1:35 AM - - N/A% 30.09 in 10.0 mi NNW 10.4 mph - N/A   Clear
1:55 AM - - N/A% 30.09 in 10.0 mi North 12.7 mph - N/A   Clear
2:15 AM - - N/A% 30.11 in 10.0 mi North 6.9 mph - N/A   Clear
2:35 AM - - N/A% 30.11 in 10.0 mi North 8.1 mph - N/A   Partly Cloudy
2:55 AM - - N/A% 30.13 in 10.0 mi NNW 11.5 mph 16.1 mph N/A   Partly Cloudy
3:35 AM - - N/A% 30.14 in 10.0 mi North 8.1 mph - N/A   Clear
3:55 AM - - N/A% 30.16 in 10.0 mi North 11.5 mph - N/A   Clear
4:15 AM - - N/A% 30.17 in 10.0 mi NNW 9.2 mph - N/A   Clear
4:35 AM - - N/A% 30.18 in 10.0 mi North 11.5 mph - N/A   Clear
4:55 AM - - N/A% 30.19 in 10.0 mi North 10.4 mph - N/A   Clear
5:15 AM - - N/A% 30.20 in 10.0 mi North 5.8 mph - N/A   Clear
5:35 AM - - N/A% 30.20 in 10.0 mi NNE 6.9 mph - N/A   Clear
5:55 AM - - N/A% 30.21 in 10.0 mi North 5.8 mph - N/A   Clear
6:15 AM - - N/A% 30.22 in 10.0 mi North 5.8 mph - N/A   Clear
6:35 AM - - N/A% 30.23 in 10.0 mi NNE 5.8 mph - N/A   Clear
6:55 AM - - N/A% 30.25 in 10.0 mi NNE 4.6 mph - N/A   Clear
7:15 AM - - N/A% 30.26 in 10.0 mi NNE 3.5 mph - N/A   Clear
7:35 AM - - N/A% 30.27 in 10.0 mi NNE 4.6 mph - N/A   Clear
7:55 AM - - N/A% 30.27 in 10.0 mi NNE 5.8 mph - N/A   Clear
8:15 AM - - N/A% 30.28 in 10.0 mi NNE 9.2 mph - N/A   Clear
8:35 AM - - N/A% 30.28 in 10.0 mi North 11.5 mph - N/A   Clear
8:55 AM - - N/A% 30.29 in 10.0 mi North 10.4 mph 19.6 mph N/A   Clear
9:15 AM - - N/A% 30.29 in 10.0 mi North 10.4 mph 19.6 mph N/A   Clear
9:35 AM - - N/A% 30.30 in 10.0 mi North 9.2 mph - N/A   Clear
9:55 AM - - N/A% 30.29 in 10.0 mi North 11.5 mph - N/A   Clear
10:15 AM - - N/A% 30.30 in 10.0 mi North 8.1 mph - N/A   Clear
10:35 AM - - N/A% 30.30 in 10.0 mi NNW 9.2 mph - N/A   Clear
10:55 AM - - N/A% 30.30 in 10.0 mi North 10.4 mph - N/A   Clear
11:15 AM - - N/A% 30.29 in 10.0 mi North 8.1 mph - N/A   Clear
11:35 AM - - N/A% 30.29 in 10.0 mi North 9.2 mph - N/A   Clear
11:55 AM - - N/A% 30.28 in 10.0 mi NNE 9.2 mph - N/A   Clear
12:15 PM - - N/A% 30.27 in 10.0 mi NNE 9.2 mph - N/A   Clear
12:35 PM - - N/A% 30.26 in 10.0 mi North 9.2 mph - N/A   Clear
12:55 PM - - N/A% 30.26 in 10.0 mi NE 4.6 mph - N/A   Clear
1:15 PM - - N/A% 30.26 in 10.0 mi North 5.8 mph - N/A   Clear
1:35 PM - - N/A% 30.26 in 10.0 mi North 8.1 mph - N/A   Clear
1:55 PM - - N/A% 30.25 in 10.0 mi NNW 5.8 mph - N/A   Clear
2:15 PM - - N/A% 30.25 in 10.0 mi NNE 9.2 mph - N/A   Clear
2:35 PM - - N/A% 30.25 in 10.0 mi North 10.4 mph - N/A   Clear
2:55 PM - - N/A% 30.26 in 10.0 mi North 5.8 mph - N/A   Clear
3:15 PM - - N/A% 30.27 in 10.0 mi NNE 4.6 mph - N/A   Clear
3:35 PM - - N/A% 30.28 in 10.0 mi NNE 3.5 mph - N/A   Clear
3:55 PM - - N/A% 30.27 in 10.0 mi Calm Calm - N/A   Clear
4:15 PM - - N/A% 30.27 in 10.0 mi Calm Calm - N/A   Clear
4:35 PM - - N/A% 30.27 in 10.0 mi Calm Calm - N/A   Clear
4:55 PM - - N/A% 30.28 in 10.0 mi Calm Calm - N/A   Clear
5:15 PM - - N/A% 30.29 in 10.0 mi North 3.5 mph - N/A   Clear
5:55 PM - - N/A% 30.30 in 10.0 mi Calm Calm - N/A   Clear
6:15 PM - - N/A% 30.31 in 10.0 mi Calm Calm - N/A   Clear
6:35 PM - - N/A% 30.31 in 10.0 mi Calm Calm - N/A   Clear
7:15 PM - - N/A% 30.33 in 10.0 mi Calm Calm - N/A   Clear
7:35 PM - - N/A% 30.33 in 10.0 mi Calm Calm - N/A   Clear
7:55 PM - - N/A% 30.33 in 10.0 mi North 3.5 mph - N/A   Clear
8:15 PM - - N/A% 30.32 in 10.0 mi Calm Calm - N/A   Clear
8:35 PM - - N/A% 30.33 in 10.0 mi NNE 3.5 mph - N/A   Clear
8:55 PM - - N/A% 30.33 in 10.0 mi Calm Calm - N/A   Clear
9:15 PM - - N/A% 30.32 in 10.0 mi North 3.5 mph - N/A   Clear
9:35 PM - - N/A% 30.32 in 10.0 mi Calm Calm - N/A   Clear
9:55 PM - - N/A% 30.32 in 10.0 mi Calm Calm - N/A   Clear
10:15 PM - - N/A% 30.32 in 10.0 mi North 4.6 mph - N/A   Clear
10:35 PM - - N/A% 30.32 in 10.0 mi North 3.5 mph - N/A   Clear
10:55 PM - - N/A% 30.32 in 10.0 mi Calm Calm - N/A   Clear
11:15 PM - - N/A% 30.33 in 10.0 mi Calm Calm - N/A   Clear
11:35 PM - - N/A% 30.33 in 10.0 mi Calm Calm - N/A   Clear
11:55 PM - - N/A% 30.32 in 10.0 mi Calm Calm - N/A   Clear